When you browse on this site, cookies collect data to enhance your experience and personalize the content and advertising you see.
Visit our Privacy Policy to learn more. By continuing to use the site, you agree to this use of cookies and data.
  • In Sweden
  • List of Countries
  • For 7 days
  • Water Temperature
  • Weather Map
  • Weather Widgets
  • user-avatar
    Login

    Hourly Weather Punakha

    Today, 10 April, Friday

    Time Temperature Precipitation Wind Pressure Humidity
    00:00 +7°C° 0 mm 1 mps 583 mmHg 94%
    01:00 +7°C° 0.1 mm 1 mps 583 mmHg 91%
    02:00 +7°C° 0.1 mm 1 mps 582 mmHg 89%
    03:00 +6°C° 0.1 mm 2 mps 582 mmHg 86%
    04:00 +5°C° 0 mm 2 mps 582 mmHg 83%
    05:00 +4°C° 0 mm 3 mps 582 mmHg 80%
    06:00 +6°C° 0 mm 2 mps 584 mmHg 73%
    07:00 +9°C° 0 mm 2 mps 585 mmHg 66%
    08:00 +13°C° 0 mm 1 mps 586 mmHg 59%
    09:00 +16°C° 0 mm 1 mps 588 mmHg 52%
    10:00 +17°C° 0 mm 2 mps 588 mmHg 48%
    11:00 +18°C° 0 mm 2 mps 588 mmHg 44%
    12:00 +19°C° 0 mm 3 mps 589 mmHg 43%
    13:00 +19°C° 0.2 mm 3 mps 588 mmHg 46%
    14:00 +19°C° 0.2 mm 3 mps 587 mmHg 49%
    15:00 +18°C° 0.2 mm 3 mps 586 mmHg 51%
    16:00 +17°C° 0.6 mm 2 mps 586 mmHg 61%
    17:00 +15°C° 0.6 mm 1 mps 585 mmHg 71%
    18:00 +14°C° 0.6 mm 1 mps 585 mmHg 80%
    19:00 +13°C° 0.2 mm 1 mps 585 mmHg 82%
    20:00 +13°C° 0.2 mm 1 mps 586 mmHg 83%
    21:00 +12°C° 0.2 mm 1 mps 586 mmHg 85%
    22:00 +12°C° 0 mm 1 mps 586 mmHg 84%
    23:00 +11°C° 0 mm 1 mps 586 mmHg 83%

    Tomorrow, 11 April, Saturday

    Time Temperature Precipitation Wind Pressure Humidity
    00:00 +11°C° 0 mm 1 mps 586 mmHg 81%
    01:00 +10°C° 0 mm 1 mps 586 mmHg 81%
    02:00 +10°C° 0 mm 1 mps 585 mmHg 81%
    03:00 +10°C° 0 mm 1 mps 585 mmHg 80%
    04:00 +9°C° 0 mm 2 mps 585 mmHg 78%
    05:00 +8°C° 0 mm 2 mps 585 mmHg 75%
    06:00 +8°C° 0 mm 2 mps 586 mmHg 73%
    07:00 +12°C° 0 mm 2 mps 587 mmHg 67%
    08:00 +14°C° 0 mm 2 mps 588 mmHg 61%
    09:00 +16°C° 0 mm 1 mps 589 mmHg 55%
    10:00 +18°C° 0.1 mm 2 mps 589 mmHg 52%
    11:00 +19°C° 0.1 mm 2 mps 589 mmHg 49%
    12:00 +20°C° 0.1 mm 2 mps 589 mmHg 47%
    13:00 +19°C° 0.7 mm 2 mps 588 mmHg 50%
    14:00 +19°C° 0.7 mm 2 mps 587 mmHg 53%
    15:00 +18°C° 0.7 mm 3 mps 586 mmHg 57%
    16:00 +17°C° 1.1 mm 2 mps 585 mmHg 64%
    17:00 +15°C° 1.1 mm 2 mps 585 mmHg 72%
    18:00 +14°C° 1.1 mm 1 mps 584 mmHg 80%
    19:00 +13°C° 0.8 mm 1 mps 585 mmHg 82%
    20:00 +12°C° 0.8 mm 1 mps 585 mmHg 83%
    21:00 +12°C° 0.8 mm 1 mps 585 mmHg 85%
    22:00 +11°C° 0.6 mm 1 mps 585 mmHg 85%
    23:00 +11°C° 0.6 mm 1 mps 585 mmHg 85%

    Day after tomorrow, 12 April, Sunday

    Time Temperature Precipitation Wind Pressure Humidity
    00:00 +10°C° 0.6 mm 1 mps 585 mmHg 85%
    01:00 +10°C° 0.2 mm 1 mps 585 mmHg 84%
    02:00 +10°C° 0.2 mm 1 mps 585 mmHg 83%
    03:00 +9°C° 0.2 mm 2 mps 584 mmHg 82%
    04:00 +9°C° 0 mm 2 mps 584 mmHg 80%
    05:00 +9°C° 0 mm 2 mps 584 mmHg 79%
    06:00 +9°C° 0 mm 2 mps 585 mmHg 77%
    07:00 +12°C° 0 mm 2 mps 586 mmHg 70%
    08:00 +14°C° 0 mm 1 mps 587 mmHg 64%
    09:00 +18°C° 0 mm 1 mps 588 mmHg 58%
    10:00 +19°C° 0.3 mm 1 mps 588 mmHg 53%
    11:00 +19°C° 0.3 mm 2 mps 589 mmHg 49%
    12:00 +21°C° 0.3 mm 2 mps 589 mmHg 44%
    13:00 +20°C° 0.4 mm 2 mps 588 mmHg 45%
    14:00 +20°C° 0.4 mm 2 mps 587 mmHg 45%
    15:00 +20°C° 0.4 mm 2 mps 587 mmHg 45%
    16:00 +19°C° 0.3 mm 2 mps 586 mmHg 54%
    17:00 +18°C° 0.3 mm 1 mps 585 mmHg 62%
    18:00 +15°C° 0.3 mm 1 mps 585 mmHg 70%
    19:00 +14°C° 0.2 mm 1 mps 585 mmHg 69%
    20:00 +13°C° 0.2 mm 2 mps 585 mmHg 69%
    21:00 +12°C° 0.2 mm 2 mps 585 mmHg 68%
    22:00 +10°C° 0.1 mm 2 mps 585 mmHg 66%
    23:00 +10°C° 0.1 mm 3 mps 585 mmHg 64%

    13 April, Monday

    Time Temperature Precipitation Wind Pressure Humidity
    00:00 +9°C° 0.1 mm 3 mps 585 mmHg 62%
    01:00 +9°C° 0 mm 3 mps 584 mmHg 59%
    02:00 +9°C° 0 mm 3 mps 584 mmHg 57%
    03:00 +9°C° 0 mm 3 mps 583 mmHg 55%
    04:00 +8°C° 0 mm 3 mps 583 mmHg 53%
    05:00 +8°C° 0 mm 3 mps 584 mmHg 51%
    06:00 +8°C° 0 mm 3 mps 584 mmHg 49%
    07:00 +13°C° 0 mm 2 mps 586 mmHg 45%
    08:00 +16°C° 0 mm 2 mps 587 mmHg 40%
    09:00 +20°C° 0 mm 1 mps 589 mmHg 35%
    10:00 +20°C° 0 mm 2 mps 589 mmHg 33%
    11:00 +23°C° 0 mm 2 mps 589 mmHg 32%
    12:00 +24°C° 0 mm 3 mps 589 mmHg 30%
    13:00 +24°C° 0.2 mm 3 mps 588 mmHg 33%
    14:00 +24°C° 0.2 mm 3 mps 588 mmHg 36%
    15:00 +22°C° 0.2 mm 3 mps 587 mmHg 39%
    16:00 +20°C° 1.3 mm 2 mps 586 mmHg 54%
    17:00 +17°C° 1.3 mm 2 mps 585 mmHg 69%
    18:00 +15°C° 1.3 mm 1 mps 584 mmHg 84%
    19:00 +14°C° 0.5 mm 1 mps 585 mmHg 81%
    20:00 +13°C° 0.5 mm 2 mps 585 mmHg 79%
    21:00 +13°C° 0.5 mm 2 mps 586 mmHg 77%
    22:00 +12°C° 0 mm 2 mps 586 mmHg 73%
    23:00 +12°C° 0 mm 2 mps 585 mmHg 70%

    14 April, Tuesday

    Time Temperature Precipitation Wind Pressure Humidity
    00:00 +12°C° 0 mm 2 mps 585 mmHg 66%
    01:00 +12°C° 0 mm 2 mps 585 mmHg 65%
    02:00 +10°C° 0 mm 2 mps 585 mmHg 63%
    03:00 +10°C° 0 mm 2 mps 585 mmHg 61%
    04:00 +10°C° 0 mm 3 mps 585 mmHg 60%
    05:00 +10°C° 0 mm 3 mps 585 mmHg 58%
    06:00 +9°C° 0 mm 3 mps 585 mmHg 56%
    07:00 +14°C° 0 mm 2 mps 587 mmHg 50%
    08:00 +17°C° 0 mm 2 mps 588 mmHg 44%
    09:00 +21°C° 0 mm 1 mps 590 mmHg 37%
    10:00 +21°C° 0.1 mm 2 mps 590 mmHg 36%
    11:00 +23°C° 0.1 mm 2 mps 590 mmHg 35%
    12:00 +24°C° 0.1 mm 3 mps 590 mmHg 34%
    13:00 +24°C° 0.2 mm 3 mps 590 mmHg 35%
    14:00 +24°C° 0.2 mm 3 mps 589 mmHg 37%
    15:00 +24°C° 0.2 mm 3 mps 589 mmHg 39%
    16:00 +20°C° 0.9 mm 2 mps 588 mmHg 53%
    17:00 +19°C° 0.9 mm 1 mps 586 mmHg 68%
    18:00 +15°C° 0.9 mm 0 mps 585 mmHg 83%
    19:00 +15°C° 0.7 mm 1 mps 586 mmHg 80%
    20:00 +14°C° 0.7 mm 2 mps 586 mmHg 78%
    21:00 +13°C° 0.7 mm 2 mps 587 mmHg 75%
    22:00 +13°C° 0.2 mm 2 mps 586 mmHg 74%
    23:00 +12°C° 0.2 mm 2 mps 586 mmHg 73%

    15 April, Wednesday

    Time Temperature Precipitation Wind Pressure Humidity
    00:00 +12°C° 0.2 mm 2 mps 586 mmHg 72%
    01:00 +12°C° 0 mm 2 mps 586 mmHg 72%
    02:00 +12°C° 0 mm 2 mps 586 mmHg 71%
    03:00 +10°C° 0 mm 2 mps 586 mmHg 70%
    04:00 +10°C° 0 mm 2 mps 586 mmHg 69%
    05:00 +10°C° 0 mm 2 mps 586 mmHg 68%
    06:00 +10°C° 0 mm 2 mps 586 mmHg 66%
    07:00 +14°C° 0 mm 2 mps 587 mmHg 60%
    08:00 +17°C° 0 mm 2 mps 588 mmHg 53%
    09:00 +20°C° 0 mm 2 mps 590 mmHg 47%
    10:00 +20°C° 0.2 mm 2 mps 590 mmHg 46%
    11:00 +21°C° 0.2 mm 2 mps 589 mmHg 46%
    12:00 +23°C° 0.2 mm 2 mps 589 mmHg 46%
    13:00 +21°C° 0.6 mm 2 mps 588 mmHg 51%
    14:00 +21°C° 0.6 mm 2 mps 587 mmHg 56%
    15:00 +20°C° 0.6 mm 2 mps 586 mmHg 60%
    16:00 +20°C° 0.5 mm 1 mps 586 mmHg 67%
    17:00 +18°C° 0.5 mm 1 mps 585 mmHg 74%
    18:00 +16°C° 0.5 mm 1 mps 584 mmHg 80%
    19:00 +15°C° 0 mm 1 mps 584 mmHg 80%
    20:00 +14°C° 0 mm 2 mps 584 mmHg 80%
    21:00 +13°C° 0 mm 2 mps 584 mmHg 81%
    22:00 +13°C° 0.2 mm 2 mps 585 mmHg 82%
    23:00 +12°C° 0.2 mm 1 mps 585 mmHg 83%
    Show more